{"data":{"norad_id":65182,"epoch":"2026-05-25T03:33:57.871008Z","epoch_age_seconds":52294,"freshness":"FRESH","line1":"1 65182U 25175J   26145.14858647  .00019118  00000+0  13257-2 0  9992","line2":"2 65182  97.4489  17.6171 0001959  87.1644 272.9808 15.05643285 44140","mean_motion":15.05643285,"eccentricity":0.0001959,"inclination_deg":97.4489,"raan_deg":17.6171,"arg_perigee_deg":87.1644,"mean_anomaly_deg":272.9808,"bstar":0.0013257,"rev_number":4414,"period_min":95.640183458195,"perigee_km":548.17462140397,"apogee_km":550.88888202089,"semimajor_km":6927.6687517124,"source":"CELESTRAK","updated_at":"2026-05-25T13:38:20.712182Z"}}